Location: Aboncourt
(47.7710°N, 5.9826°E)
Time: 03:17:17
(UTC+00:00)

Terra - Pass Details

Date: 05 July 2020
Orbit: 701 x 703 km, 98.2° (Epoch: 03 August)

Event Time Altitude Azimuth Distance (km) Brightness Sun altitude
Exits shadow 20:31:41 - 126° (SE) 2,232 3.8 -7.8°
Reaches altitude 10° 20:31:51 10° 125° (SE) 2,170 3.7 -7.8°
Maximum altitude 20:35:59 30° 65° (ENE) 1,242 3.0 -8.3°
Drops below altitude 10° 20:40:08 10° 5° (N) 2,182 5.0 -8.7°
Sets 20:42:36 0° 355° (N) 3,105 6.1 -9.0°
